Theta_e
345 345 346 346 346 347 349 351 350 351 350 350 350 350 349 349 349 348 347 347 345 340 340 341 341 341 347 343 346 347 345 345 345 346 346 345 345 345 345 344 343 342 342 340 339 339 340 340 340 341 342 342 340 331 332 334 332 334 332 333 335 332
344 344 344 345 346 346 348 348 346 346 346 348 349 349 346 345 348 343 346 342 338 342 337 336 337 346 340 343 343 345 345 345 345 345 345 345 345 345 344 344 344 343 341 340 340 329 332 337 339 339 340 341 331 328 330 334 332 332 333 332 334 335
343 343 343 343 344 345 344 343 343 343 345 347 349 347 343 345 339 340 339 340 339 337 337 338 338 342 342 345 343 345 345 345 345 345 345 344 344 344 345 344 344 343 342 342 333 328 326 325 326 337 338 331 327 327 329 331 332 332 332 332 331 339
343 342 341 340 341 341 340 341 341 342 342 343 342 342 339 339 338 338 339 338 337 338 336 335 347 346 346 342 340 345 345 345 345 345 344 344 342 343 344 343 343 343 343 339 329 328 327 324 325 327 327 326 326 326 328 330 331 331 331 335 333 341
343 343 341 341 340 339 339 339 339 340 340 338 338 336 336 335 334 335 338 338 338 337 335 333 334 335 335 336 335 335 338 336 336 338 342 335 336 339 338 335 335 337 328 330 329 327 326 326 326 326 327 327 326 326 328 331 331 331 332 334 334 342
343 343 342 340 340 341 341 338 338 338 338 338 337 335 334 333 333 334 336 337 337 334 333 333 333 333 335 334 335 335 334 335 335 336 338 334 333 332 332 334 332 331 330 328 328 327 324 326 325 325 326 326 325 325 328 330 331 332 333 333 336 342
342 343 342 342 341 342 339 338 338 338 338 336 335 334 333 332 332 333 335 337 334 333 333 331 332 332 332 333 333 332 331 332 333 333 335 333 332 332 333 331 331 332 330 329 329 327 326 325 325 325 325 326 325 324 326 330 330 331 332 333 338 341
342 342 341 342 342 341 339 339 339 344 339 342 338 334 333 332 332 333 334 335 336 333 333 331 332 331 332 331 331 332 331 330 331 332 334 333 332 332 332 329 329 329 331 331 329 328 327 327 326 326 326 325 325 324 327 329 330 331 332 333 336 341
342 342 341 342 341 340 339 339 340 339 337 344 336 334 334 334 332 333 334 335 338 333 331 331 330 331 332 330 330 330 330 329 330 331 331 330 332 332 332 331 330 330 329 329 328 328 327 327 326 326 326 326 326 325 328 329 330 331 332 333 334 338
342 342 341 341 340 339 339 339 339 338 338 341 335 335 335 333 333 333 332 334 335 333 332 331 331 330 331 330 329 329 329 329 330 331 330 329 329 328 329 329 329 330 331 329 329 328 327 325 326 326 325 325 324 326 328 329 330 331 333 333 333 335
342 344 341 340 339 339 340 338 338 338 338 336 334 337 334 333 334 334 333 335 334 334 332 331 331 331 330 331 329 329 328 329 329 331 332 330 330 329 328 328 329 328 327 327 325 325 324 323 324 325 325 324 323 324 328 329 330 331 333 333 333 334
341 342 340 340 341 339 338 338 338 336 335 335 335 332 332 333 337 333 333 333 333 333 333 330 330 330 330 330 329 329 329 329 328 330 332 332 331 331 329 330 331 329 328 325 324 323 324 323 322 322 323 323 324 323 326 328 329 331 332 333 334 335
340 340 338 338 339 338 337 339 336 334 334 336 334 332 331 333 333 332 332 333 331 331 329 329 328 331 332 328 328 328 328 328 329 330 329 331 331 330 330 330 329 329 324 320 320 320 326 323 322 323 322 324 324 325 324 329 329 329 330 332 333 334
336 336 335 336 335 335 336 335 334 332 336 333 332 331 332 330 333 331 332 331 331 331 330 330 329 329 328 327 327 326 327 326 327 328 329 330 330 329 329 328 327 325 328 319 317 319 320 320 321 324 327 328 328 327 325 326 327 328 329 330 332 333
332 330 332 330 334 333 333 333 331 331 331 329 328 328 328 330 331 330 330 329 330 331 331 330 329 328 328 327 327 326 327 327 328 328 330 328 329 328 327 326 323 321 320 319 317 321 319 319 322 326 326 327 327 327 327 327 326 329 331 330 330 332
327 325 325 328 330 331 332 330 330 333 328 328 327 328 327 330 330 329 329 328 327 330 329 328 331 329 328 328 327 327 327 329 330 329 328 327 328 327 326 325 323 322 318 321 324 324 322 320 324 324 324 325 325 326 325 325 326 327 329 330 329 330
323 324 325 326 328 328 329 329 329 329 327 327 327 327 327 327 330 329 327 327 327 328 326 326 329 329 328 327 326 326 328 330 331 327 327 326 327 328 327 328 325 324 321 321 323 325 325 322 323 324 324 324 324 323 324 324 324 326 327 325 327 329
324 323 323 323 323 321 321 322 323 326 330 327 327 327 328 328 329 328 327 327 327 328 327 326 329 328 326 326 325 326 327 330 329 328 326 327 325 326 326 327 324 323 324 324 322 321 322 322 326 325 322 324 323 322 323 322 323 325 323 325 326 327
323 321 320 319 320 319 317 318 319 323 325 325 326 325 326 327 327 326 325 325 327 326 327 326 327 327 324 326 325 326 327 328 329 327 327 324 323 326 326 324 323 321 325 324 322 321 323 322 322 323 323 324 324 325 322 322 321 320 320 321 327 330
322 321 319 318 316 314 316 319 319 320 321 321 321 322 319 321 321 324 327 327 326 326 328 326 326 325 324 325 324 324 326 327 326 326 325 324 322 324 324 323 321 321 322 323 324 325 323 321 321 321 323 323 323 324 327 323 321 320 320 320 324 328
322 320 317 315 313 312 315 316 317 318 317 316 317 317 318 317 318 320 324 328 327 327 326 325 329 326 324 329 325 324 324 325 326 325 324 323 323 327 326 324 322 320 318 317 319 322 322 321 318 317 319 321 323 326 328 325 324 322 321 321 325 329
322 319 317 315 315 314 315 315 316 316 316 316 316 315 315 315 316 320 319 320 323 325 325 324 326 324 326 326 326 325 324 324 324 324 324 323 323 327 326 326 323 319 319 318 320 325 324 318 315 315 315 314 316 320 322 322 322 323 323 322 323 327
322 320 318 318 317 316 316 316 317 315 317 314 315 315 314 318 319 318 317 317 318 318 318 318 322 325 324 325 325 324 324 323 323 326 323 322 321 322 322 323 323 320 319 320 321 324 322 318 315 318 316 313 311 312 315 318 320 321 322 322 324 327
322 320 319 322 321 318 319 316 317 316 315 315 314 318 316 315 316 317 318 319 319 316 317 317 318 319 319 322 323 323 322 322 322 322 321 320 320 321 321 320 321 321 321 320 321 321 323 322 320 316 313 312 312 311 308 310 314 320 326 326 325 328
321 320 319 322 319 319 317 315 315 316 317 316 315 314 313 313 316 318 317 316 316 317 318 318 317 318 320 318 319 321 322 321 321 322 322 321 320 321 321 321 322 323 323 322 321 323 323 324 324 323 316 313 308 307 308 311 313 316 322 324 325 327
320 320 320 318 317 317 316 314 313 313 312 311 310 310 311 312 312 313 314 315 316 317 317 317 317 318 318 317 315 318 320 321 320 323 322 320 321 321 320 320 320 321 321 320 322 322 321 324 323 323 323 318 314 310 309 315 313 309 316 321 323 325
321 320 319 316 316 316 314 313 313 313 313 312 312 310 312 312 314 313 314 314 314 316 316 316 315 314 314 314 313 315 318 318 317 318 321 319 318 318 322 323 321 320 319 319 319 316 321 322 323 323 322 321 322 322 318 315 311 312 310 314 318 319
322 321 319 318 315 315 313 312 312 313 314 312 313 313 314 313 313 314 315 314 314 313 315 316 315 314 313 315 314 314 315 315 316 317 319 317 316 317 319 320 320 319 320 319 317 318 318 321 318 317 319 319 320 322 322 319 315 313 309 309 312 315
321 320 319 318 316 314 314 313 313 314 314 314 314 315 315 316 315 314 312 311 312 312 312 312 313 313 312 314 316 312 311 312 313 315 317 315 314 315 315 315 315 314 314 315 317 318 318 316 316 316 319 318 319 319 319 317 316 315 311 308 309 310
321 320 320 319 317 315 315 315 314 315 314 314 315 315 315 314 314 312 311 309 309 309 310 310 310 311 312 312 312 313 312 312 313 315 315 312 312 313 313 313 313 312 312 311 312 313 313 311 311 312 315 317 318 319 316 312 311 313 313 311 309 310
321 320 320 319 317 315 314 314 315 316 315 314 314 314 314 314 313 310 309 308 308 308 309 309 310 309 310 312 314 315 313 313 314 316 313 312 312 313 311 311 311 311 310 310 309 309 310 309 309 309 310 310 311 313 309 306 306 307 307 305 304 305
320 320 319 319 317 316 314 314 317 317 315 315 315 314 314 313 312 310 309 309 308 309 308 309 308 308 309 311 312 310 312 310 311 310 312 312 311 311 311 311 310 310 310 309 309 310 308 307 307 307 307 307 307 308 308 307 308 307 306 306 305 304
320 320 318 317 316 315 315 316 317 316 315 315 314 314 314 313 312 311 310 310 309 308 308 309 307 307 309 309 310 310 310 310 310 311 310 310 309 311 311 311 311 310 309 308 307 307 307 305 306 306 306 306 307 307 307 306 307 306 305 306 304 301
319 319 318 316 315 313 314 317 317 316 315 316 314 313 313 313 312 312 312 310 309 309 309 308 308 308 309 309 310 311 311 310 309 310 311 310 310 310 311 311 310 310 309 307 308 307 306 305 305 305 305 304 305 305 305 307 305 306 305 304 301 301
317 319 318 317 316 313 314 317 317 317 316 316 315 314 313 314 313 313 311 310 310 310 310 310 309 310 310 310 310 309 309 309 309 310 311 311 313 311 311 311 310 309 308 308 308 308 306 306 307 305 305 304 306 306 305 305 305 306 306 305 304 303
317 318 319 318 318 316 316 317 317 316 317 317 316 315 315 314 313 314 312 311 310 310 311 311 311 311 310 310 309 310 309 308 308 309 309 310 309 310 308 308 307 308 308 312 309 307 305 305 305 304 303 303 305 304 305 305 306 305 305 306 306 303
318 319 319 318 318 317 316 317 317 317 317 317 316 315 315 315 314 314 313 312 311 311 311 312 312 312 311 309 310 309 309 308 308 307 308 309 309 307 308 309 308 306 306 307 309 305 305 305 303 303 303 302 302 303 304 304 304 305 305 304 305 304
Wind_Speed
6 7 6 6 6 6 9 13 11 12 12 12 10 10 10 10 10 10 8 8 7 4 4 3 4 4 7 3 5 7 8 9 10 10 10 10 10 9 8 7 6 5 4 3 1 3 5 6 6 5 5 5 8 4 2 4 5 5 4 3 3 4
6 7 6 5 4 4 6 8 5 6 5 7 9 9 7 4 7 4 9 6 3 3 3 3 3 5 3 3 4 7 8 8 9 9 8 8 9 8 7 7 5 4 4 2 1 1 3 6 7 7 6 6 6 1 1 4 6 5 4 3 4 5
7 7 6 5 4 4 5 4 4 4 5 7 7 7 4 5 3 5 3 3 3 3 3 3 3 4 3 5 4 8 7 7 8 8 8 8 8 7 5 6 5 3 2 2 0 0 3 4 5 7 6 3 5 1 0 3 6 5 5 3 3 7
7 7 6 5 4 4 4 4 4 4 4 4 4 4 3 4 4 4 4 4 3 3 2 3 6 8 6 3 3 7 8 7 7 7 8 5 6 6 7 5 4 4 2 0 1 1 2 4 5 5 4 2 3 2 1 3 5 5 5 5 4 9
7 6 6 5 5 4 4 4 4 4 4 3 4 4 4 3 3 3 3 4 3 3 2 1 2 2 3 3 3 2 3 3 2 3 5 3 4 3 3 3 2 1 2 1 2 2 1 3 4 5 5 4 0 3 0 2 5 5 5 5 5 11
7 6 6 5 5 5 6 4 4 4 4 3 4 4 4 3 4 3 3 3 4 4 2 2 2 2 3 4 3 4 4 3 3 3 4 5 3 3 2 3 3 2 2 2 3 2 2 3 5 4 4 4 2 4 1 4 5 5 5 5 6 12
6 6 6 5 4 4 5 4 4 4 4 4 4 5 4 3 3 3 3 3 4 4 3 2 3 3 4 4 4 4 4 3 3 4 4 5 3 3 4 3 3 3 2 3 3 3 3 3 3 4 3 4 3 2 3 5 5 5 5 5 6 13
6 6 5 6 6 5 4 5 5 5 4 4 5 4 3 3 2 4 3 3 3 4 4 4 4 3 3 3 4 5 4 4 4 4 4 4 4 4 4 2 3 3 3 3 3 3 3 3 4 3 4 4 3 2 4 5 6 5 5 5 5 10
6 7 5 6 6 5 5 5 5 4 5 5 4 4 4 3 3 3 3 3 3 4 4 4 4 3 4 3 4 4 4 4 3 4 4 4 5 5 4 4 3 3 2 3 2 3 3 4 4 5 6 3 2 4 4 6 6 6 5 5 5 7
8 7 7 6 5 5 5 6 5 5 5 4 4 4 5 4 3 4 4 3 3 4 5 5 5 3 5 4 4 4 4 4 4 3 4 4 4 5 5 3 3 3 3 2 2 5 3 5 5 5 5 4 3 5 6 6 6 6 6 6 5 5
8 8 7 7 6 6 6 5 5 5 5 4 3 4 5 4 4 3 4 3 3 3 4 3 3 4 4 4 4 4 4 4 4 3 3 4 3 3 3 4 4 3 3 2 2 2 2 4 3 3 1 2 1 2 5 6 6 6 7 7 6 5
9 8 9 8 6 6 5 6 6 5 5 4 4 4 5 5 5 4 3 3 3 3 3 3 3 3 4 4 4 4 4 4 3 3 3 2 3 3 3 3 3 3 3 1 2 2 1 1 3 2 1 1 1 4 5 4 6 7 6 6 6 6
9 8 8 8 7 6 6 6 6 6 6 5 5 4 4 5 5 5 4 4 3 3 3 3 2 3 4 3 3 3 3 3 3 3 2 2 2 2 2 2 3 1 1 3 1 0 0 2 4 4 3 3 3 3 3 6 5 5 6 7 6 6
8 9 7 7 6 6 5 5 5 5 5 5 5 5 4 4 5 5 5 4 4 4 4 4 3 4 4 3 3 2 2 2 2 2 2 1 2 2 3 2 3 3 3 2 1 0 0 2 4 3 5 3 5 5 3 4 5 3 2 2 4 5
7 7 7 7 7 6 5 6 5 5 4 3 3 4 4 3 3 4 4 4 3 4 4 3 3 4 3 2 3 2 1 1 1 2 2 1 1 1 1 3 4 4 1 1 2 1 2 3 3 4 3 4 4 4 5 4 2 6 3 3 3 2
8 8 8 9 8 7 8 6 5 5 5 4 3 3 3 3 3 3 3 3 3 3 3 3 4 3 4 4 3 2 2 3 3 3 3 2 1 1 0 3 1 4 2 2 2 4 4 3 3 2 2 3 3 4 5 4 4 4 3 4 4 4
11 10 8 8 8 7 6 6 5 5 5 5 5 4 3 3 4 3 3 3 3 2 3 3 3 3 4 4 3 2 2 3 3 3 2 2 2 0 1 3 2 1 3 3 3 4 3 2 2 1 1 3 3 3 3 4 3 3 4 3 4 5
8 8 9 9 8 7 6 6 6 5 4 4 4 4 3 2 4 4 4 3 3 3 3 3 3 3 4 3 2 2 2 4 3 4 2 2 2 1 3 3 3 2 2 3 2 3 1 1 1 2 2 3 2 2 1 2 3 3 3 2 2 3
9 8 8 8 6 6 5 4 6 7 5 4 3 3 1 0 0 0 1 1 1 1 1 1 1 2 3 2 2 2 3 3 4 4 3 4 2 1 3 2 3 2 3 3 3 2 2 3 1 1 2 2 2 1 0 1 2 4 3 3 3 2
7 7 6 7 7 7 6 6 6 6 6 5 4 3 2 0 0 0 1 1 2 3 2 2 2 2 1 1 1 2 3 2 3 4 5 6 3 1 3 3 2 3 4 3 2 3 3 2 1 3 1 1 0 1 1 1 1 2 3 3 3 2
6 6 8 7 6 7 7 6 5 5 6 4 5 4 3 1 1 1 1 2 2 2 3 3 5 4 3 4 3 2 3 3 3 3 3 4 4 2 2 2 2 2 2 2 2 2 1 2 2 1 2 3 3 1 1 1 1 0 1 4 1 2
6 5 6 6 6 5 4 6 7 6 6 5 6 6 4 2 3 3 3 2 3 3 3 3 2 3 5 5 5 3 3 4 4 4 3 3 3 4 4 4 4 3 2 2 1 0 1 1 3 1 1 3 3 3 1 1 1 0 0 2 3 2
6 5 4 4 5 4 3 4 7 4 8 3 1 2 3 1 2 4 4 3 2 1 0 1 2 1 2 2 4 5 4 4 3 4 4 4 3 3 3 4 3 4 2 2 1 0 0 2 1 1 1 2 1 2 3 2 1 2 1 0 2 3
6 4 4 3 4 4 6 5 6 6 4 5 5 3 4 3 4 6 6 4 4 3 3 3 2 1 1 2 3 3 3 3 4 3 3 4 3 3 3 3 2 2 3 2 1 0 1 1 3 1 0 1 0 0 2 1 1 2 2 1 1 2
6 4 3 4 6 8 9 8 7 6 7 7 6 6 5 4 4 3 3 5 4 4 4 4 3 4 3 3 2 2 2 2 3 2 3 3 3 3 3 3 3 3 4 3 3 2 1 1 2 1 3 2 1 0 2 2 1 1 3 2 3 1
4 4 5 5 8 8 9 10 8 8 7 7 6 5 6 4 3 4 3 0 3 4 4 5 5 5 5 4 5 3 4 3 3 3 3 3 3 3 3 3 2 3 2 2 4 4 2 1 2 1 1 0 1 1 1 2 1 1 2 0 2 1
6 5 6 5 7 8 8 8 9 8 8 8 8 3 2 3 4 2 2 4 3 3 4 5 5 5 5 4 5 4 5 5 4 3 3 4 3 3 3 2 2 3 2 3 4 3 4 2 2 1 1 2 1 0 1 0 0 0 1 3 2 2
6 7 6 6 7 10 10 7 7 7 7 7 7 6 5 4 3 3 4 2 3 3 3 3 4 4 4 5 6 6 6 5 6 5 5 5 4 3 5 3 3 3 3 2 3 5 3 3 3 1 1 1 2 2 1 2 1 1 2 0 2 3
8 8 7 8 9 8 10 9 8 7 6 3 6 7 5 4 4 3 4 3 4 3 4 4 4 4 4 5 5 5 5 6 6 5 5 6 5 6 5 4 4 5 4 4 3 3 3 2 1 2 4 1 0 2 2 3 1 2 1 1 0 1
9 9 9 8 9 9 10 9 9 7 8 6 6 5 5 6 5 4 4 3 4 4 4 5 4 4 4 4 5 4 5 5 5 5 5 5 5 6 5 5 4 4 4 5 4 5 3 2 2 2 1 4 2 1 2 2 3 2 2 2 2 1
10 8 8 9 10 10 9 10 10 9 9 9 7 7 7 6 5 4 4 4 4 4 4 4 3 3 4 4 4 4 5 4 4 4 5 5 5 5 5 5 5 5 5 5 5 5 5 4 4 6 6 5 4 2 2 2 1 2 2 1 2 2
8 10 8 8 7 9 9 9 9 9 9 8 8 7 9 9 7 6 5 5 4 5 4 3 3 3 3 4 5 5 4 5 4 4 5 4 4 5 4 5 5 5 4 4 4 5 5 6 5 6 4 4 5 4 4 3 1 2 4 1 2 1
9 7 8 7 6 8 8 9 9 9 8 6 5 6 7 8 7 7 6 6 5 6 4 5 3 4 2 4 4 6 6 6 5 4 4 4 4 5 5 5 5 5 5 5 4 5 6 4 4 6 5 3 5 5 4 2 4 4 3 5 4 4
6 5 6 3 2 4 6 7 9 10 9 7 6 4 5 7 6 7 6 7 7 7 7 6 5 4 4 4 4 5 5 4 4 4 4 5 4 4 5 5 5 5 4 3 4 5 4 4 4 3 3 6 5 5 3 4 3 4 3 3 4 3
10 12 9 6 1 3 6 8 8 7 7 6 7 6 5 5 7 7 5 5 4 5 6 6 6 4 3 4 4 4 4 5 4 5 5 5 5 4 4 4 4 4 4 4 5 5 5 5 6 5 5 5 5 5 3 3 4 3 3 3 3 1
8 8 8 9 10 8 7 7 8 9 7 6 6 7 5 3 4 6 7 6 6 5 6 6 5 4 4 5 5 4 4 4 4 5 5 5 5 5 5 5 4 4 4 2 5 5 4 5 5 4 4 4 6 3 2 3 3 3 3 3 3 3
9 7 8 9 8 7 10 9 8 8 7 5 6 7 8 6 6 6 6 6 6 5 4 4 5 4 5 4 5 5 4 4 4 4 4 4 4 4 4 4 4 4 4 2 4 4 4 5 4 4 4 4 4 4 3 3 3 3 2 3 3 3
Wind_Direction
119 122 124 128 129 135 146 143 143 143 142 140 136 140 142 141 137 136 131 129 115 105 109 108 111 116 125 112 131 146 151 150 150 151 156 159 156 157 155 153 151 153 155 151 136 327 325 330 331 343 348 353 70 76 97 95 130 126 138 158 168 189
122 125 127 125 131 138 143 139 137 141 139 142 143 143 137 133 136 116 128 125 119 118 114 119 139 136 131 132 137 156 155 155 154 156 156 156 159 159 160 155 157 162 158 145 148 13 336 330 329 325 332 349 71 47 67 112 135 139 150 163 173 188
133 135 129 128 133 132 128 134 132 131 142 148 155 140 129 130 101 114 117 127 117 116 131 134 138 143 149 139 143 158 158 157 156 155 154 157 162 161 155 159 167 170 169 160 72 353 333 318 320 323 333 0 86 59 258 124 138 149 153 162 177 184
143 146 139 138 133 131 134 131 134 135 139 145 118 118 109 117 121 128 133 132 134 132 125 175 169 162 155 132 144 155 160 155 154 154 154 148 163 167 158 162 179 186 171 113 171 268 308 318 308 306 306 320 82 94 318 134 149 148 150 167 177 181
148 150 142 145 144 141 134 128 129 139 145 138 121 111 113 111 112 104 126 131 130 121 119 86 74 79 101 127 102 97 102 94 107 118 129 109 137 153 145 146 202 156 151 210 240 262 267 293 296 297 300 298 27 116 282 133 152 148 157 164 174 176
152 154 149 147 149 154 146 141 142 154 148 145 130 123 117 123 107 104 119 128 115 120 121 92 110 154 139 110 111 99 100 108 109 120 132 129 132 122 138 159 174 203 234 239 258 260 246 251 276 287 283 278 265 118 187 136 148 153 160 163 175 173
155 144 139 147 148 152 152 155 152 160 157 168 145 139 138 126 112 119 129 138 125 134 133 130 164 172 131 119 126 117 106 116 122 132 138 137 147 152 155 174 188 213 224 239 256 262 251 256 259 273 255 263 277 103 180 144 150 151 163 169 176 173
146 141 145 153 159 164 154 153 163 167 173 189 160 144 124 135 132 127 141 144 140 146 150 155 191 174 132 115 129 126 125 123 129 141 134 137 148 168 161 160 192 221 227 236 244 248 256 257 257 241 234 225 239 122 175 150 150 150 160 167 179 177
148 151 154 155 166 165 156 155 159 155 177 200 173 153 141 152 158 150 151 157 149 150 155 166 188 167 121 133 135 133 140 151 145 151 134 146 154 163 175 186 200 212 225 255 283 297 278 263 251 232 223 225 207 163 152 152 153 153 157 166 174 181
158 160 158 162 168 159 163 157 153 161 179 190 198 144 137 157 183 165 159 166 165 157 165 175 190 148 140 150 148 143 145 164 151 164 151 159 165 158 184 188 204 220 218 230 241 251 268 264 236 221 218 212 193 168 155 154 159 159 156 159 174 186
160 162 162 168 168 165 157 153 153 159 155 172 181 133 138 154 171 171 164 154 156 166 167 182 172 149 140 149 150 149 170 172 164 175 168 175 153 170 182 190 202 214 221 223 249 279 299 291 211 224 259 278 37 140 156 162 162 159 162 167 171 185
163 163 169 173 162 153 155 156 154 142 147 165 155 145 144 157 161 168 163 148 160 156 153 178 166 150 137 151 155 161 172 176 179 176 170 157 159 164 190 205 203 213 227 173 199 272 274 313 48 27 355 32 330 154 160 177 165 168 169 168 173 186
163 166 172 170 165 159 161 160 149 151 161 163 163 151 149 159 155 160 169 159 151 131 120 130 125 131 136 159 159 157 167 190 177 166 162 157 152 189 199 215 231 206 97 116 141 319 326 342 33 9 35 27 35 68 185 166 177 177 176 173 178 184
163 168 169 168 149 158 164 153 160 160 162 161 168 153 154 155 152 155 161 152 150 145 148 152 142 106 115 143 151 168 179 181 161 138 110 126 175 212 223 204 210 145 167 127 124 257 42 38 23 33 47 34 41 24 53 130 157 185 187 193 182 181
161 157 164 166 158 158 157 165 156 158 150 149 145 145 145 147 141 150 149 160 155 153 148 154 148 139 110 128 142 160 163 199 175 136 134 103 90 287 206 194 148 144 116 49 25 21 22 62 67 57 47 49 46 45 49 34 101 160 151 150 160 200
143 145 158 163 161 155 166 165 158 145 136 139 134 133 143 143 133 142 164 167 164 153 156 149 141 140 148 162 169 142 167 177 170 152 144 113 63 26 301 154 176 149 111 36 61 32 31 52 83 92 60 61 55 43 68 47 43 80 136 153 171 182
139 139 140 145 147 151 153 154 151 130 151 143 138 139 146 132 129 144 186 181 165 162 164 149 156 156 157 175 156 123 140 145 132 133 118 120 103 47 74 111 48 16 134 135 95 73 46 36 49 42 32 54 36 49 41 69 47 46 85 124 188 187
127 129 132 135 139 140 140 139 133 137 138 118 119 132 153 150 153 169 185 193 172 170 182 174 166 173 171 162 140 148 116 127 126 117 110 78 113 136 85 112 106 35 93 122 100 106 103 72 20 62 65 66 61 37 11 88 81 43 31 48 40 177
121 123 122 124 120 102 91 82 92 112 101 81 65 50 61 70 289 98 232 227 158 190 205 152 161 187 175 146 137 152 119 129 134 128 121 73 326 90 94 89 122 84 56 75 116 132 150 139 93 45 60 47 19 56 289 48 102 97 70 14 10 356
121 126 124 119 116 105 99 111 96 85 82 77 75 77 47 18 9 184 279 228 198 192 186 169 184 192 187 130 115 141 149 144 128 122 125 140 200 191 130 109 101 100 77 57 48 93 101 102 75 66 46 339 295 301 138 106 42 102 106 54 11 352
135 132 129 131 123 124 119 107 90 98 107 105 109 103 95 121 116 136 181 233 248 247 221 184 178 173 170 182 166 169 138 126 125 126 131 145 153 139 131 127 105 75 93 67 15 18 38 115 93 359 10 22 347 338 320 80 88 84 92 98 51 37
132 131 134 142 138 119 135 141 135 139 125 120 116 111 106 79 91 100 110 161 219 240 250 250 201 180 169 173 152 156 149 154 148 150 150 146 155 139 130 125 129 75 53 113 97 15 325 61 15 75 29 336 340 321 289 29 57 251 91 109 110 76
139 143 152 140 123 126 104 118 123 145 132 106 44 110 115 106 71 66 47 64 76 66 269 294 266 240 204 146 143 151 168 160 152 152 140 145 139 134 137 134 130 132 103 65 103 116 96 74 147 101 137 77 323 358 327 2 342 344 357 127 130 143
148 148 148 128 102 90 102 97 99 119 98 106 135 101 77 61 48 43 30 15 40 62 76 62 54 96 151 178 156 144 139 145 159 158 144 128 135 142 131 138 155 146 128 111 94 358 46 79 104 112 142 177 223 111 331 318 324 295 325 11 122 133
153 142 131 118 117 118 108 98 98 86 94 85 65 65 73 46 32 49 47 35 9 27 35 34 42 59 70 76 94 151 140 125 109 120 125 137 147 145 150 164 165 148 163 140 138 96 20 127 156 128 132 82 6 25 224 245 1 311 349 19 16 54
123 123 129 137 140 132 129 131 127 121 114 108 107 109 121 130 93 89 94 322 17 32 38 38 29 39 47 61 65 77 79 78 92 107 116 114 115 107 94 103 130 139 121 108 138 128 143 147 176 201 109 159 170 182 217 255 90 295 319 190 313 301
140 140 137 151 147 130 128 134 137 138 138 141 138 167 138 136 136 149 112 71 37 21 40 59 35 37 40 54 70 75 83 75 71 78 81 77 64 67 63 79 103 108 132 122 113 123 152 142 111 120 117 290 345 263 184 70 251 334 7 320 349 321
147 148 156 156 145 141 135 132 128 129 135 140 146 152 149 155 137 128 96 76 55 33 32 52 61 38 41 58 71 67 71 69 69 66 72 67 71 64 66 42 60 85 84 79 112 131 130 161 154 203 135 281 301 330 28 60 94 152 158 123 326 324
152 156 164 160 146 144 138 140 136 135 129 141 142 148 148 138 128 116 110 92 82 70 55 43 59 64 44 61 68 83 82 76 72 70 75 74 64 65 71 67 49 47 57 52 67 109 128 213 163 172 130 168 25 22 20 26 40 63 105 113 289 350
161 165 165 163 150 148 141 136 134 141 139 145 141 141 136 136 132 135 131 123 102 84 69 58 48 60 69 62 74 76 81 84 87 81 78 82 80 73 66 66 65 71 69 70 48 77 97 73 61 66 133 144 116 70 22 6 7 22 46 72 140 327
166 164 162 165 157 155 148 143 140 144 143 149 156 151 139 136 136 132 133 121 110 104 86 78 63 51 68 67 68 70 82 82 74 74 72 71 76 87 85 88 87 77 70 80 74 75 67 55 70 68 64 86 109 133 156 123 51 18 105 78 45 358
165 166 167 163 161 153 143 133 134 139 142 156 162 161 155 157 160 153 152 146 140 112 100 91 89 87 64 67 79 77 80 75 73 77 79 90 86 81 76 73 65 70 72 75 83 79 73 69 71 74 66 78 89 96 75 108 150 104 97 98 118 116
170 166 157 150 166 157 138 130 132 135 140 156 172 164 159 156 160 154 160 153 146 136 132 113 137 116 122 107 97 82 81 85 82 86 95 87 85 84 82 77 77 68 62 56 57 74 73 68 77 89 97 63 80 72 76 75 107 112 91 99 100 56
137 117 101 88 198 142 110 120 136 139 147 155 166 171 174 160 165 159 164 165 161 156 154 159 165 162 168 133 109 119 109 108 113 110 104 104 99 94 92 96 95 90 86 99 84 79 87 82 69 69 82 74 57 68 56 46 73 69 89 82 58 60
42 58 61 65 36 130 121 129 135 133 144 151 164 169 195 182 159 158 168 163 168 159 157 173 169 177 157 134 140 130 128 122 117 110 113 110 109 105 104 96 98 104 95 90 84 86 73 73 69 72 69 86 84 66 71 75 81 82 94 93 126 144
56 98 138 161 166 153 127 118 136 140 154 161 172 163 171 198 179 163 166 167 176 179 176 170 178 155 166 145 147 135 125 128 121 112 119 130 129 122 119 107 95 94 92 87 88 80 82 78 79 85 95 87 76 63 58 67 79 97 98 128 117 124
157 164 167 161 158 162 139 130 142 149 159 165 172 173 170 186 185 176 167 172 173 194 184 177 173 163 158 155 146 142 139 143 129 122 116 126 125 125 117 111 116 113 115 86 90 99 88 84 92 93 78 78 101 73 14 7 19 22 46 67 83 108